Location: A�n Sidi Mimoun
(35.0408°N, 0.4711°E)
Time: 04:36:29
(UTC+00:00)

Daily predictions for brighter satellites

Satellite Brightness Start Highest point End
(mag) Time Altitude Azimuth Time Altitude Azimuth Time Altitude Azimuth
Cosmos 2237 Rocket 4.4 02:47:34 21° ENE 02:47:34 21° ENE 02:49:47 10° NE
ATLAS 2AS CENTAUR R/B 3.3 03:16:30 58° N 03:16:30 58° N 03:22:53 10° NNE
USA 238 DEB 3.9 03:25:33 74° SE 03:25:33 74° SE 03:32:19 10° SSE
USA 238 3.9 03:25:35 75° ESE 03:25:35 75° ESE 03:32:25 10° SSE
CZ-2C R/B 4.4 03:32:43 10° NE 03:37:06 27° E 03:41:24 10° SSE
Cosmos 2184 Rocket 4.4 03:34:38 19° SSE 03:39:05 59° E 03:45:14 10° NNE
SL-16 R/B 3.8 03:34:55 11° SSE 03:39:35 32° ESE 03:44:31 10° NE
IDEFIX/ARIANE 42P 3.6 03:38:13 10° NNE 03:41:20 37° NNE 03:41:20 37° NNE
RESURS DK-1 4.1 03:44:37 31° E 03:44:37 31° E 03:47:38 10° NE
NOSS 3-2 (A) 4.0 03:45:57 48° NW 03:48:35 82° WSW 03:57:09 10° SSE
USA 267 4.0 03:45:59 10° NNE 03:51:17 35° NNW 03:51:17 35° NNW
Milstar 3 4.0 03:51:52 27° SSW 03:53:55 32° SSE 03:59:47 10° ESE
Cosmos 2278 Rocket 2.4 03:52:10 40° N 03:54:13 70° ENE 03:59:51 10° SSE
Cosmos 407 Rocket 4.4 03:59:53 36° N 03:59:53 36° N 04:02:59 10° N
Cosmos 1190 Rocket 4.4 04:00:15 53° N 04:00:15 53° N 04:04:20 10° NNE
Cosmos 2333 Rocket 4.3 04:03:09 13° NNW 04:03:09 13° NNW 04:04:03 10° N
Cosmos 2074 Rocket 3.8 04:05:16 27° SSW 04:08:48 74° W 04:15:03 10° N
NOSS 3-2 (C) 4.0 04:07:39 18° NNW 04:13:57 84° WSW 04:22:32 10° SSE
Cosmos 2219 Rocket 4.4 04:19:05 11° NNW 04:19:05 11° NNW 04:19:25 10° NNW
USA 234 3.8 04:15:57 10° ESE 04:22:18 56° NE 04:28:12 12° NW
Cosmos 1437 Rocket 4.2 04:21:06 10° SSE 04:24:36 36° E 04:28:05 10° NNE
NOSS 3-4 (A) 4.1 04:25:47 33° NW 04:25:52 33° NW 04:31:27 10° NNE
NOSS 3-4 (C) 4.1 04:25:49 33° NW 04:25:57 33° NW 04:31:34 10° NNE
Cosmos 1892 Rocket 4.1 04:22:11 10° S 04:26:31 60° E 04:30:52 10° NNE
Cosmos 489 Rocket 4.4 04:21:11 10° NNW 04:27:23 68° WSW 04:33:36 10° S
In-Cosmos 22 4.5 04:22:12 10° S 04:27:27 64° E 04:32:50 10° NNE
Cosmos 2237 Rocket 3.0 04:29:27 32° NW 04:29:27 32° NW 04:33:55 10° N
SJ-6F 4.3 04:30:39 10° N 04:34:45 64° WNW 04:36:42 29° SSW
Milstar 3 Cent rocket 3.3 04:32:14 21° SW 04:35:17 33° S 04:39:32 10° ESE
Cosmos 1140 Rocket 3.8 04:35:02 41° W 04:35:39 42° WNW 04:40:34 10° N
Cosmos 1954 Rocket 3.9 04:32:57 25° SW 04:35:54 60° WNW 04:41:04 10° N
H-2A R/B 3.2 04:35:42 10° N 04:38:54 35° NW 04:38:54 35° NW
Meteor 1-4 Rocket 4.1 04:41:56 21° NNW 04:41:56 21° NNW 04:43:19 10° N
ATLAS 3B R/B 2.6 04:35:42 10° NNW 04:42:28 83° WSW 04:49:25 10° SSE
Cosmos 1606 Rocket 3.4 04:38:39 10° N 04:42:59 82° W 04:47:18 10° S
GP-B 3.6 04:39:41 10° SSE 04:44:02 61° E 04:48:25 10° N
Cosmos 44 3.3 04:47:25 35° W 04:48:25 41° WSW 04:52:28 10° S
PAYLOAD A 4.3 04:45:06 10° N 04:49:42 42° WNW 04:54:28 10° SW
Cosmos 1726 3.0 04:46:57 10° N 04:50:32 51° E 04:54:07 10° SSE
Cosmos 1953 2.4 04:47:18 10° NNW 04:51:11 48° W 04:55:00 10° SSW
CENTAUR R/B 3.2 04:43:55 10° NW 04:52:11 68° WSW 05:00:48 10° SSE
CZ-4B R/B 2.9 04:54:06 10° N 04:57:51 46° WNW 05:01:25 10° SSW
Meteor 1-31 Rocket 3.1 04:57:35 10° N 05:01:08 38° WNW 05:04:40 10° SW
Cosmos 44 Rocket 4.0 05:00:03 10° NNW 05:04:38 51° ENE 05:09:11 10° SE
Cosmos 962 Rocket 4.5 04:59:33 10° SSW 05:05:47 70° W 05:12:08 10° N
Cosmos 1356 3.3 05:02:30 10° NNW 05:05:55 61° W 05:09:18 10° S
Okean 1-7 Rocket 3.9 05:02:02 10° SSW 05:06:15 44° W 05:10:33 10° N
ATLAS 2AS CENTAUR R/B 4.4 05:03:59 15° WNW 05:07:10 19° NW 05:12:37 10° N
Cosmos 1674 2.5 05:04:16 10° S 05:07:58 79° W 05:11:41 10° N
COSMO-SKYMED 1 3.1 05:04:46 10° SSE 05:09:02 63° ENE 05:13:20 10° N
Meteor 2-17 Rocket 4.4 05:03:03 10° S 05:09:08 83° W 05:15:12 10° N
BREEZE-M DEB (TANK) 3.7 05:05:48 17° W 05:10:07 41° NNW 05:13:05 10° NE
Cosmos 2218 Rocket 4.4 05:05:39 10° S 05:11:58 70° E 05:18:16 10° NNE
Cosmos 1943 Rocket 4.1 05:09:15 10° N 05:14:14 30° ENE 05:19:10 10° ESE
Cosmos 2228 3.4 05:11:16 10° NNW 05:15:11 37° W 05:19:05 10° SSW
CZ-2C R/B 3.3 05:10:46 10° N 05:15:13 30° WNW 05:19:37 10° SW
Cosmos 2154 Rocket 4.5 05:09:50 10° SW 05:15:25 35° WNW 05:21:03 10° NNW
COBE Rocket 4.0 05:11:23 10° SSE 05:16:23 90° SW 05:21:33 10° N
Cosmos 1484 Rocket 2.7 05:13:15 10° N 05:17:02 63° WNW 05:20:52 10° SSW
Cosmos 1741 Rocket 4.0 05:12:34 10° SSW 05:17:51 66° WNW 05:23:09 10° NNE
FENGYUN 3A 4.2 05:14:46 10° NNE 05:20:10 66° E 05:25:33 10° S
SL-8 R/B 3.8 05:15:46 12° WSW 05:20:13 63° NW 05:24:58 10° NE
METEOR-M 4.5 05:15:31 10° NNE 05:20:52 72° ESE 05:26:10 10° S
RESURS DK-1 3.9 05:20:35 15° W 05:22:01 17° WNW 05:24:47 10° NNW
IDEFIX/ARIANE 42P 4.4 05:21:21 10° NW 05:22:08 10° WNW 05:22:08 10° WNW
Cosmos 1726 Rocket 4.1 05:19:04 10° NNW 05:22:57 33° W 05:26:48 10° SSW
Cosmos 1603 4.0 05:17:40 10° SSW 05:23:13 71° ESE 05:28:50 10° NNE
SL-16 R/B 3.0 05:18:39 10° WSW 05:23:36 31° WNW 05:28:35 10° N
Meteor 1-24 Rocket 3.8 05:18:49 10° S 05:24:31 88° W 05:30:28 10° N
Helios 1A Rocket 2.9 05:23:23 10° N 05:27:33 83° WNW 05:31:41 10° SSW
Cosmos 1626 3.5 05:26:40 10° SSE 05:30:11 44° E 05:33:44 10° NNE
Cosmos 1763 Rocket 4.4 05:26:11 10° N 05:31:13 52° ENE 05:36:09 10° SSE
Cosmos 1602 Rocket 3.5 05:31:37 10° S 05:35:57 83° W 05:40:17 10° N
ISS -0.7 05:34:41 10° S 05:36:59 17° SE 05:39:17 10° E
Cosmos 2278 Rocket 3.8 05:35:13 10° WNW 05:37:34 13° W 05:39:55 10° WSW
Cosmos 1300 4.4 05:35:31 10° N 05:39:05 38° E 05:42:39 10° SSE
Cosmos 2297 4.0 05:35:54 10° NW 05:41:21 46° WSW 05:46:46 10° S
PSLV R/B 4.4 05:39:27 10° WNW 05:41:35 22° N 05:43:43 10° NE
NOAA 6 4.0 05:36:27 10° N 05:41:38 83° WNW 05:46:46 10° SSW
Cosmos 864 Rocket 4.5 05:37:44 10° SSW 05:43:54 72° W 05:50:11 10° N
Okean O Rocket 1.6 05:41:57 10° N 05:46:16 59° WNW 05:50:32 10° SSW
